GAOFEN-4

Last updated on Wed Sep 17 2025 00:02:31 GMT+0000 (Coordinated Universal Time)

1 41194U 15083A 25259.61835921 -.00000354 00000+0 00000+0 0 9995 2 41194 0.0452 69.0445 0001941 125.3459 129.7054 1.00269521 35781
UTC large
Height (km)
Speed (km/s)
/
Latitude / Longitude
Inclination (degrees)
Orbital Period (minutes)
Azimuth
Elevation
Range (km)
Doppler Factor

Next 0 passes for location: London (51.5072 / 0.1276)

Sorry there are no passes over London.